Regional Weather Roundup
Issued by NWS

Home | Current Version | Previous Version | Graphics & Text | Print | Product List | Glossary On
Versions: 1 2 3 4 5 6 7 8 9 10 11 12 13 14 15 16 17 18 19 20 21 22 23 24 25 26 27 28 29 30 31 32 33 34 35 36 37 38 39 40 41 42 43 44 45 46 47 48 49 50
000
ASUS45 KBOU 301907
RWRCO

WEATHER ROUNDUP FOR COLORADO
NATIONAL WEATHER SERVICE DENVER/BOULDER CO
100 PM MDT MON MAR 30 2015

NOTE: "FAIR" INDICATES FEW OR NO CLOUDS BELOW 12000 FEET WITH NO
SIGNIFICANT WEATHER AND/OR OBSTRUCTIONS TO VISIBILITY.

COZ001>005-013-030-031-302000-
...NORTHWEST COLORADO...

CITY           SKY/WX    TMP DP  RH WIND       PRES   REMARKS
CRAIG          SUNNY     63  19  18 W7G20     30.26F
HAYDEN         SUNNY     59  16  18 W14G22    30.27S
MEEKER         SUNNY     65  16  15 S10       30.25F
MOUNT WERNER   NOT AVBL
STEAMBOAT SPGS SUNNY     57  19  23 NW3       30.28S
WALDEN         SUNNY     54   9  16 W13G20    30.29F
$$

COZ006>008-011-302000-
...WEST CENTRAL VALLEYS...

CITY           SKY/WX    TMP DP  RH WIND       PRES   REMARKS
GRAND JUNCTION SUNNY     68  12  11 W3        30.19F
MONTROSE       SUNNY     70   8   9 N10       30.24F
EAGLE          SUNNY     64  16  15 CALM      30.26F
RIFLE          SUNNY     66  12  12 N3        30.22F
DELTA          SUNNY     71  13  11 CALM      30.21F
NUCLA          SUNNY     70  14  11 SW3       30.27F
$$

COZ017>023-064>068-302000-
...SOUTHWEST COLORADO...

CITY           SKY/WX    TMP DP  RH WIND       PRES   REMARKS
DURANGO        SUNNY     66  19  16 VRB5      30.26F
CORTEZ         SUNNY     73  19  13 SW10G17   30.23F
PAGOSA SPRINGS SUNNY     63   6  11 SW9       30.31F
TELLURIDE      MOSUNNY   58   9  14 W17G23    30.40F
WOLF CREEK PAS MOSUNNY   41  10  28 CALM      30.53S
$$

COZ009-010-012-014-032>034-037-058>063-302000-
...CENTRAL COLORADO...

CITY           SKY/WX    TMP DP  RH WIND       PRES   REMARKS
ASPEN          SUNNY     60   7  12 N17G25    30.29F
BUENA VISTA    SUNNY     62  -5   6 NW21      30.28S
COPPER MTN     SUNNY     41 -15   9 W21G37    30.46S
BERTHOUD PASS  FAIR      34  28  80 NW30G43   30.45S WCI  20
COTTONWOOD PAS SUNNY     55 -18   4 W10G21    30.37S
GUNNISON       SUNNY     59  16  18 E8        30.33F
KREMMLING      SUNNY     59  12  15 CALM      30.28F
LEADVILLE      MOSUNNY   47   6  18 NW10G23   30.37S
SALIDA         SUNNY     64   1   8 CALM      30.34F
SUNLIGHT       SUNNY     48   9  20 N3        30.48S
WILKERSON PASS MOSUNNY   43   3  19 W5        30.46S
$$

COZ069>075-302000-
...SAN LUIS VALLEY/SANGRE DE CRISTO MOUNTAINS...

CITY           SKY/WX    TMP DP  RH WIND       PRES   REMARKS
ALAMOSA        MOSUNNY   66  10  11 NW8G17    30.28F
LA VETA PASS   PTSUNNY   54  18  24 SW6       30.40F
SAGUACHE       SUNNY     63   7  11 N21G29    30.30F
$$

COZ035-036-038>040-302000-
...NORTHERN COLORADO FRONT RANGE...

CITY           SKY/WX    TMP DP  RH WIND       PRES   REMARKS
DENVER INTL AP MOSUNNY   69  20  15 NE6       30.14F
DMNS CITY PARK   N/A     72  18  12 W12G28    30.12F
AURORA         MOSUNNY   70  14  11 W10       30.15F
FRONT RANGE AP MOSUNNY   72  27  18 E9        30.16F
ERIE MUNI ARPT SUNNY     72  17  12 N3        30.13F
BOULDER MUN AP SUNNY     70  23  17 NE6       30.13F
CENTENNIAL     MOSUNNY   69  13  11 VRB3      30.15F
BROOMFIELD     MOSUNNY   72  19  14 CALM      30.15F
FORT COLLINS   SUNNY     70  25  18 SE8       30.15F
LONGMONT       SUNNY     73  26  17 NE5       30.15F HAZE
$$

COZ041-046-047-076>085-087-088-302000-
...PIKES PEAK/PALMER DIVIDE AND SOUTHERN FOOTHILLS...

CITY           SKY/WX    TMP DP  RH WIND       PRES   REMARKS
COLO. SPRINGS  PTSUNNY   71   7   8 VRB3      30.18F
A. F. ACADEMY  PTSUNNY   67   4   8 W8        30.19F
ELLICOTT       PTSUNNY  N/A N/A N/A VRB5      30.17F
FALCON         PTSUNNY   66  10  11 NW15      30.22F
FORT CARSON    CLOUDY    72  11   9 SW9       30.15F
LIMON          SUNNY     69  20  15 N9        30.15F
MONUMENT HILL  MOSUNNY   61  12  15 W6        30.22F
TRINIDAD       CLOUDY    70  14  11 W15       30.18F
$$

COZ042>045-048>051-090-091-302000-
...NORTHEAST COLORADO...

CITY           SKY/WX    TMP DP  RH WIND       PRES   REMARKS
GREELEY ARPT   SUNNY     73  19  13 S5        30.12F
AKRON          SUNNY     71  17  12 N23G30    30.13S
BURLINGTON     SUNNY     74  16  11 N20G30    30.09F
WRAY           SUNNY     76  17  11 N13G22    30.08F
STERLING       SUNNY     72  21  15 N10G22    30.11S
HOLYOKE        NOT AVBL
FORT MORGAN    SUNNY    N/A N/A N/A NW12G26   30.13F
$$

COZ086-089-092>099-302000-
...SOUTHEAST COLORADO...

CITY           SKY/WX    TMP DP  RH WIND       PRES   REMARKS
PUEBLO         CLOUDY    74   8   8 W15G22    30.10F
LA JUNTA       PTSUNNY   73  22  14 VRB6      30.10F
LAMAR          MOSUNNY   73  26  17 VRB3      30.06F
SPRINGFIELD      N/A     76  25  15 N18G24    30.08F
$$



USA.gov is the U.S. government's official web portal to all federal, state and local government web resources and services.